MET2388 - Rochester to Kansas City

Bombardier Dash-8-Q200
838AH
1 hr 15 mins
294 nm
Scheduled - Daily

Bid/PiRep Status

Bid was submitted on December 16th, 2016 7:55 UTC.
PiRep # 74389: Approved by Dave Nichols on December 20th, 2016 5:17 UTC

Departure

Departing from
Rochester (RST)
Departure gate
A4
Scheduled Departure
GMT 2035
Local 1535
METAR KRST 232254Z 18011KT 10SM CLR 29/18 A2997 RMK AO2 SLP138 T02940178
TAF KRST 231720Z 2318/2418 20011G20KT P6SM SCT040 FM240000 17008KT P6SM FEW250 FM241700 18011G20KT P6SM FEW250

Route Map

Planning Resources

KRST LMN BSQ BSQ4
RST MCW J25 DSM LMN BQS4
KRST ZUTEL DSM STJ MAXEE KMCI
MCW DSM LMN BQS4
KRST DSM KMCI
Route:
OFP Layout:
Units:
Detailed Navlog:
ETOPS Planning:
Plan Stepclimbs:
Runway Analysis:
Include NOTAMS:
FIR NOTAMS:
Flight Maps:

Return Flights

MET2385
Bombardier Dash-8-Q200
1400 GMT
MET2387
Bombardier Dash-8-Q200
1900 GMT

Popularity

Hub Current Bids PiReps this month Total PiReps
KMCI 0 0 4
KLAX 0 0 0
KBOS 0 0 0